BAW460 EGLL-LEMD

Flight info

Callsign BAW460
Flight time 1h 53m
Altitude 39000
Route GOGSI N621 SAM M195 IBNID/N0448F330 M195 MARUK N621 LELNA DCT NOVAN DCT DELOG N864 NONTU
Aircraft B772/H-SDE1E3FGHIJ3J5J6M1M2P2RWXYZ/LB1D1

Departure

Time 2026-05-04 19:18
Airport London Heathrow Airport (EGLL)

Arrival

Time 2026-05-04 21:11
Airport Adolfo Suárez Madrid–Barajas Airport (LEMD)
Time Latitude Longitude Altitude Speed Heading
2026-05-04 18:27 51.46848 -0.47497 95 ft 0 kts 270°
2026-05-04 18:56 51.46848 -0.47494 95 ft 2 kts 270°
2026-05-04 18:56 51.46848 -0.47452 91 ft 4 kts 270°
2026-05-04 18:56 51.46848 -0.47409 91 ft 3 kts 270°
2026-05-04 18:57 51.46851 -0.47374 91 ft 4 kts 235°
2026-05-04 18:57 51.46865 -0.47354 92 ft 4 kts 189°
2026-05-04 18:57 51.46886 -0.47352 91 ft 4 kts 180°
2026-05-04 18:57 51.46909 -0.47352 91 ft 1 kts 180°
2026-05-04 19:02 51.46894 -0.47353 91 ft 10 kts 181°
2026-05-04 19:03 51.46817 -0.47353 94 ft 11 kts 179°
2026-05-04 19:03 51.46750 -0.47389 94 ft 11 kts 240°
2026-05-04 19:03 51.46743 -0.47510 91 ft 11 kts 272°
2026-05-04 19:03 51.46744 -0.47633 93 ft 11 kts 269°
2026-05-04 19:04 51.46743 -0.47754 93 ft 11 kts 269°
2026-05-04 19:04 51.46743 -0.47877 92 ft 11 kts 270°
2026-05-04 19:04 51.46742 -0.48001 92 ft 11 kts 269°
2026-05-04 19:04 51.46742 -0.48079 91 ft 0 kts 269°
2026-05-04 19:11 51.46742 -0.48115 92 ft 5 kts 270°
2026-05-04 19:12 51.46739 -0.48173 91 ft 5 kts 252°
2026-05-04 19:12 51.46682 -0.48225 94 ft 5 kts 171°
2026-05-04 19:12 51.46646 -0.48216 92 ft 5 kts 176°
2026-05-04 19:13 51.46612 -0.48216 91 ft 0 kts 180°
2026-05-04 19:17 51.46538 -0.48217 92 ft 13 kts 179°
2026-05-04 19:17 51.46479 -0.48124 95 ft 14 kts 97°
2026-05-04 19:18 51.46480 -0.47725 91 ft 81 kts 90°
2026-05-04 19:18 51.46492 -0.46295 106 ft 170 kts 91°
2026-05-04 19:18 51.46406 -0.44240 1052 ft 188 kts 94°
2026-05-04 19:18 51.46236 -0.42080 2207 ft 205 kts 94°
2026-05-04 19:19 51.46048 -0.39714 2690 ft 223 kts 104°
2026-05-04 19:19 51.45211 -0.37557 3172 ft 234 kts 131°
2026-05-04 19:19 51.44092 -0.35551 3573 ft 242 kts 127°
2026-05-04 19:19 51.42876 -0.33613 3902 ft 255 kts 147°
2026-05-04 19:20 51.41177 -0.32671 4437 ft 265 kts 174°
2026-05-04 19:20 51.39327 -0.32926 5127 ft 270 kts 198°
2026-05-04 19:20 51.37693 -0.34359 5784 ft 269 kts 220°
2026-05-04 19:20 51.36302 -0.36387 6021 ft 277 kts 223°
2026-05-04 19:21 51.34834 -0.38500 6002 ft 276 kts 222°
2026-05-04 19:21 51.33429 -0.40490 6008 ft 271 kts 222°
2026-05-04 19:21 51.32019 -0.42517 6003 ft 270 kts 225°
2026-05-04 19:21 51.30846 -0.44829 6004 ft 271 kts 239°
2026-05-04 19:22 51.30010 -0.47571 6012 ft 272 kts 249°
2026-05-04 19:22 51.29419 -0.50457 6006 ft 274 kts 254°
2026-05-04 19:22 51.28901 -0.53389 6004 ft 274 kts 255°
2026-05-04 19:22 51.28384 -0.56327 6003 ft 274 kts 255°
2026-05-04 19:23 51.27854 -0.59257 6013 ft 274 kts 253°
2026-05-04 19:23 51.27290 -0.62176 5987 ft 275 kts 253°
2026-05-04 19:23 51.26722 -0.65087 5983 ft 273 kts 253°
2026-05-04 19:23 51.26158 -0.67975 6003 ft 271 kts 253°
2026-05-04 19:24 51.25601 -0.70829 5988 ft 270 kts 253°
2026-05-04 19:24 51.25239 -0.73718 6013 ft 268 kts 266°
2026-05-04 19:24 51.25190 -0.76755 6166 ft 275 kts 270°
2026-05-04 19:24 51.25200 -0.79800 6848 ft 275 kts 270°
2026-05-04 19:25 51.25219 -0.82855 7584 ft 275 kts 270°
2026-05-04 19:25 51.25248 -0.85924 8274 ft 277 kts 270°
2026-05-04 19:25 51.25279 -0.89023 8949 ft 280 kts 270°
2026-05-04 19:25 51.25315 -0.92146 9612 ft 284 kts 270°
2026-05-04 19:26 51.25358 -0.95305 10264 ft 286 kts 270°
2026-05-04 19:26 51.25403 -0.98541 10888 ft 289 kts 270°
2026-05-04 19:26 51.25443 -1.01737 11537 ft 294 kts 270°
2026-05-04 19:26 51.25479 -1.05106 11793 ft 316 kts 270°
2026-05-04 19:27 51.25254 -1.08702 11906 ft 331 kts 251°
2026-05-04 19:27 51.24018 -1.11801 12374 ft 344 kts 222°
2026-05-04 19:27 51.22671 -1.13260 12822 ft 348 kts 205°
2026-05-04 19:27 51.19687 -1.15213 13498 ft 357 kts 203°
2026-05-04 19:28 51.18140 -1.16300 14013 ft 362 kts 204°
2026-05-04 19:28 51.15854 -1.18020 14960 ft 363 kts 205°
2026-05-04 19:28 51.13604 -1.19788 15912 ft 364 kts 206°
2026-05-04 19:28 51.11313 -1.21629 16744 ft 369 kts 206°
2026-05-04 19:29 51.09007 -1.23502 17542 ft 374 kts 206°
2026-05-04 19:29 51.06694 -1.25387 18362 ft 379 kts 206°
2026-05-04 19:29 51.04317 -1.27326 19180 ft 382 kts 206°
2026-05-04 19:29 51.01951 -1.29257 20003 ft 385 kts 206°
2026-05-04 19:30 50.99519 -1.31236 20853 ft 388 kts 206°
2026-05-04 19:30 50.97140 -1.33167 21628 ft 391 kts 206°
2026-05-04 19:30 50.94725 -1.35210 22429 ft 395 kts 209°
2026-05-04 19:30 50.92376 -1.37595 23210 ft 399 kts 212°
2026-05-04 19:31 50.90057 -1.40060 23920 ft 402 kts 212°
2026-05-04 19:31 50.87734 -1.42531 24589 ft 404 kts 212°
2026-05-04 19:31 50.85395 -1.45003 25281 ft 406 kts 212°
2026-05-04 19:31 50.83020 -1.47496 25955 ft 408 kts 211°
2026-05-04 19:32 50.80643 -1.49976 26593 ft 410 kts 211°
2026-05-04 19:32 50.78246 -1.52469 27192 ft 413 kts 211°
2026-05-04 19:32 50.75841 -1.54963 27778 ft 416 kts 211°
2026-05-04 19:32 50.73409 -1.57481 28349 ft 418 kts 211°
2026-05-04 19:33 50.70975 -1.59997 28907 ft 420 kts 211°
2026-05-04 19:33 50.68486 -1.62568 29441 ft 423 kts 211°
2026-05-04 19:33 50.66023 -1.65108 29915 ft 426 kts 211°
2026-05-04 19:33 50.63535 -1.67673 30318 ft 429 kts 211°
2026-05-04 19:34 50.61053 -1.70227 30658 ft 432 kts 211°
2026-05-04 19:34 50.58497 -1.72856 30987 ft 436 kts 211°
2026-05-04 19:34 50.55942 -1.75479 31293 ft 440 kts 211°
2026-05-04 19:34 50.53378 -1.78106 31591 ft 443 kts 211°
2026-05-04 19:35 50.50782 -1.80758 31909 ft 446 kts 211°
2026-05-04 19:35 50.48163 -1.83417 32202 ft 449 kts 211°
2026-05-04 19:35 50.45557 -1.86057 32466 ft 452 kts 211°
2026-05-04 19:35 50.42876 -1.88771 32718 ft 455 kts 211°
2026-05-04 19:36 50.40212 -1.91466 32958 ft 458 kts 211°
2026-05-04 19:36 50.37537 -1.94169 33199 ft 460 kts 211°
2026-05-04 19:36 50.34830 -1.96904 33429 ft 463 kts 211°
2026-05-04 19:36 50.32109 -1.99649 33700 ft 465 kts 211°
2026-05-04 19:37 50.29388 -2.02387 33986 ft 465 kts 211°
2026-05-04 19:37 50.26548 -2.04907 34247 ft 464 kts 203°
2026-05-04 19:37 50.23529 -2.06668 34511 ft 464 kts 195°
2026-05-04 19:37 50.20386 -2.07821 34765 ft 464 kts 188°
2026-05-04 19:38 50.17170 -2.08332 34916 ft 466 kts 183°
2026-05-04 19:38 50.10706 -2.09046 34997 ft 467 kts 184°
2026-05-04 19:39 50.04232 -2.09897 35000 ft 462 kts 185°
2026-05-04 19:39 49.97884 -2.10995 35002 ft 462 kts 190°
2026-05-04 19:40 49.91658 -2.13693 35010 ft 462 kts 197°
2026-05-04 19:40 49.85511 -2.16634 35006 ft 462 kts 196°
2026-05-04 19:41 49.79340 -2.19513 35003 ft 462 kts 196°
2026-05-04 19:41 49.73178 -2.22368 35005 ft 462 kts 196°
2026-05-04 19:42 49.67027 -2.25214 35001 ft 461 kts 196°
2026-05-04 19:42 49.60876 -2.28055 34999 ft 461 kts 196°
2026-05-04 19:43 49.54767 -2.30870 34996 ft 460 kts 196°
2026-05-04 19:43 49.48624 -2.33694 35000 ft 459 kts 195°
2026-05-04 19:44 49.42493 -2.36505 34997 ft 459 kts 195°
2026-05-04 19:44 49.36372 -2.39303 34998 ft 459 kts 195°
2026-05-04 19:45 49.30210 -2.42113 34997 ft 459 kts 195°
2026-05-04 19:45 49.24091 -2.44897 34995 ft 459 kts 195°
2026-05-04 19:46 49.17965 -2.47676 34996 ft 459 kts 195°
2026-05-04 19:46 49.11843 -2.50446 34997 ft 459 kts 195°
2026-05-04 19:47 49.05712 -2.53213 35000 ft 459 kts 195°
2026-05-04 19:47 48.99586 -2.55971 34998 ft 460 kts 195°
2026-05-04 19:48 48.93445 -2.58728 35000 ft 460 kts 195°
2026-05-04 19:48 48.87311 -2.61476 34998 ft 460 kts 195°
2026-05-04 19:49 48.81152 -2.64227 34997 ft 460 kts 195°
2026-05-04 19:49 48.74975 -2.66979 34997 ft 461 kts 195°
2026-05-04 19:50 48.68816 -2.69716 34994 ft 461 kts 195°
2026-05-04 19:50 48.62645 -2.72452 34995 ft 462 kts 195°
2026-05-04 19:51 48.56472 -2.75181 34996 ft 462 kts 195°
2026-05-04 19:51 48.50293 -2.77907 34998 ft 463 kts 195°
2026-05-04 19:52 48.44108 -2.80628 34995 ft 463 kts 195°
2026-05-04 19:52 48.37916 -2.83345 34994 ft 463 kts 195°
2026-05-04 19:53 48.31733 -2.86051 34997 ft 463 kts 195°
2026-05-04 19:53 48.25537 -2.88756 34994 ft 463 kts 195°
2026-05-04 19:54 48.19339 -2.91455 34996 ft 463 kts 195°
2026-05-04 19:54 48.13151 -2.94143 34998 ft 463 kts 195°
2026-05-04 19:55 48.06961 -2.96826 34995 ft 463 kts 195°
2026-05-04 19:55 48.00765 -2.99504 34993 ft 463 kts 195°
2026-05-04 19:56 47.94578 -3.02171 34989 ft 463 kts 195°
2026-05-04 19:56 47.89386 -3.04404 34988 ft 463 kts 195°
2026-05-04 19:57 47.83191 -3.07063 34978 ft 463 kts 195°
2026-05-04 19:57 47.77001 -3.09713 34992 ft 463 kts 195°
2026-05-04 19:58 47.70820 -3.12353 34993 ft 463 kts 195°
2026-05-04 19:58 47.64621 -3.14994 35005 ft 462 kts 195°
2026-05-04 19:59 47.58450 -3.17616 34992 ft 462 kts 195°
2026-05-04 19:59 47.52274 -3.20234 34994 ft 461 kts 195°
2026-05-04 20:00 47.46054 -3.22864 34997 ft 462 kts 195°
2026-05-04 20:00 47.39911 -3.25455 34996 ft 462 kts 195°
2026-05-04 20:01 47.33719 -3.28061 34998 ft 463 kts 195°
2026-05-04 20:01 47.27511 -3.30666 34998 ft 464 kts 195°
2026-05-04 20:02 47.21303 -3.33266 35001 ft 464 kts 195°
2026-05-04 20:02 47.15082 -3.35865 34998 ft 464 kts 195°
2026-05-04 20:03 47.08875 -3.38452 34993 ft 464 kts 195°
2026-05-04 20:03 47.02662 -3.41034 34993 ft 464 kts 195°
2026-05-04 20:04 46.96434 -3.43617 34993 ft 464 kts 195°
2026-05-04 20:04 46.90229 -3.46184 35000 ft 463 kts 195°
2026-05-04 20:05 46.84025 -3.48745 35004 ft 463 kts 195°
2026-05-04 20:05 46.77809 -3.51304 35003 ft 463 kts 195°
2026-05-04 20:06 46.71624 -3.53845 35000 ft 463 kts 195°
2026-05-04 20:06 46.65417 -3.56388 35002 ft 462 kts 195°
2026-05-04 20:07 46.59221 -3.58921 35003 ft 462 kts 195°
2026-05-04 20:07 46.53039 -3.61442 35002 ft 462 kts 195°
2026-05-04 20:08 46.46835 -3.63967 35003 ft 462 kts 195°
2026-05-04 20:08 46.40649 -3.66479 35002 ft 462 kts 195°
2026-05-04 20:09 46.34460 -3.68983 35002 ft 462 kts 194°
2026-05-04 20:09 46.28130 -3.70622 35004 ft 462 kts 185°
2026-05-04 20:10 46.21726 -3.71476 35007 ft 462 kts 185°
2026-05-04 20:10 46.15285 -3.72420 35006 ft 462 kts 186°
2026-05-04 20:11 46.08887 -3.73379 35007 ft 462 kts 186°
2026-05-04 20:11 46.02486 -3.74336 35008 ft 462 kts 186°
2026-05-04 20:12 45.96127 -3.75282 35006 ft 462 kts 186°
2026-05-04 20:12 45.89693 -3.76235 35007 ft 461 kts 186°
2026-05-04 20:13 45.83313 -3.77177 35011 ft 461 kts 186°
2026-05-04 20:13 45.76930 -3.78118 35010 ft 461 kts 186°
2026-05-04 20:14 45.70546 -3.79058 35010 ft 461 kts 186°
2026-05-04 20:14 45.64167 -3.79994 35011 ft 461 kts 186°
2026-05-04 20:15 45.57797 -3.80927 35009 ft 461 kts 186°
2026-05-04 20:15 45.51414 -3.81859 35014 ft 461 kts 186°
2026-05-04 20:16 45.45023 -3.82791 35017 ft 461 kts 186°
2026-05-04 20:16 45.38636 -3.83720 35015 ft 462 kts 186°
2026-05-04 20:17 45.32243 -3.84647 35018 ft 462 kts 186°
2026-05-04 20:17 45.25845 -3.85574 35018 ft 462 kts 186°
2026-05-04 20:18 45.19440 -3.86499 35018 ft 462 kts 186°
2026-05-04 20:18 45.13029 -3.87423 35018 ft 462 kts 187°
2026-05-04 20:19 45.06625 -3.88344 35019 ft 462 kts 187°
2026-05-04 20:19 45.00215 -3.89263 35019 ft 462 kts 187°
2026-05-04 20:20 44.93813 -3.90180 35017 ft 462 kts 187°
2026-05-04 20:20 44.87431 -3.91092 35017 ft 462 kts 187°
2026-05-04 20:21 44.81022 -3.92005 35020 ft 462 kts 187°
2026-05-04 20:21 44.71416 -3.93370 35362 ft 458 kts 187°
2026-05-04 20:22 44.68278 -3.93815 35587 ft 460 kts 187°
2026-05-04 20:22 44.65049 -3.94273 35813 ft 462 kts 187°
2026-05-04 20:22 44.61841 -3.94727 36053 ft 463 kts 187°
2026-05-04 20:22 44.58631 -3.95181 36318 ft 463 kts 187°
2026-05-04 20:23 44.55421 -3.95634 36589 ft 464 kts 187°
2026-05-04 20:23 44.52214 -3.96086 36853 ft 464 kts 187°
2026-05-04 20:23 44.48994 -3.96540 37110 ft 465 kts 187°
2026-05-04 20:23 44.45771 -3.96993 37352 ft 466 kts 187°
2026-05-04 20:24 44.42538 -3.97448 37601 ft 467 kts 187°
2026-05-04 20:24 44.39308 -3.97902 37825 ft 467 kts 187°
2026-05-04 20:24 44.36076 -3.98355 38081 ft 468 kts 187°
2026-05-04 20:24 44.32811 -3.98697 38321 ft 470 kts 184°
2026-05-04 20:25 44.29532 -3.98597 38536 ft 472 kts 178°
2026-05-04 20:25 44.26261 -3.98218 38747 ft 473 kts 178°
2026-05-04 20:25 44.22976 -3.97852 38907 ft 474 kts 178°
2026-05-04 20:25 44.19674 -3.97503 38958 ft 476 kts 178°
2026-05-04 20:26 44.14177 -3.96950 39024 ft 475 kts 178°
2026-05-04 20:26 44.07597 -3.96307 39031 ft 472 kts 178°
2026-05-04 20:27 44.01058 -3.95670 39030 ft 471 kts 179°
2026-05-04 20:27 43.94526 -3.95034 39038 ft 471 kts 179°
2026-05-04 20:28 43.87993 -3.94397 39035 ft 471 kts 179°
2026-05-04 20:28 43.81447 -3.93761 39034 ft 471 kts 179°
2026-05-04 20:29 43.74915 -3.93127 39033 ft 471 kts 179°
2026-05-04 20:29 43.68374 -3.92485 39041 ft 470 kts 179°
2026-05-04 20:30 43.61853 -3.91845 39045 ft 470 kts 179°
2026-05-04 20:30 43.55298 -3.91204 39043 ft 469 kts 179°
2026-05-04 20:31 43.48794 -3.90569 39045 ft 468 kts 179°
2026-05-04 20:31 43.42319 -3.90480 39047 ft 463 kts 189°
2026-05-04 20:32 43.35917 -3.91529 39038 ft 463 kts 189°
2026-05-04 20:32 43.29505 -3.92516 39044 ft 464 kts 189°
2026-05-04 20:33 43.23073 -3.93472 39060 ft 465 kts 189°
2026-05-04 20:33 43.16641 -3.94422 39048 ft 465 kts 189°
2026-05-04 20:34 43.10173 -3.95377 39058 ft 464 kts 189°
2026-05-04 20:34 43.03779 -3.96324 39055 ft 465 kts 189°
2026-05-04 20:35 42.97315 -3.97276 39057 ft 464 kts 189°
2026-05-04 20:35 42.90923 -3.98215 39060 ft 464 kts 189°
2026-05-04 20:36 42.84489 -3.99156 39058 ft 465 kts 189°
2026-05-04 20:36 42.78017 -4.00101 39047 ft 465 kts 189°
2026-05-04 20:37 42.71581 -4.01039 39042 ft 464 kts 189°
2026-05-04 20:37 42.65161 -4.01973 39041 ft 465 kts 189°
2026-05-04 20:38 42.58726 -4.02907 39042 ft 465 kts 189°
2026-05-04 20:38 42.52287 -4.03837 39033 ft 466 kts 189°
2026-05-04 20:39 42.45824 -4.04765 39023 ft 466 kts 189°
2026-05-04 20:39 42.39368 -4.05690 39025 ft 467 kts 189°
2026-05-04 20:40 42.32908 -4.06614 39026 ft 467 kts 190°
2026-05-04 20:40 42.26434 -4.07539 39016 ft 467 kts 190°
2026-05-04 20:41 42.19969 -4.08460 39013 ft 467 kts 190°
2026-05-04 20:41 42.13529 -4.09377 39010 ft 467 kts 190°
2026-05-04 20:42 42.07051 -4.10297 39011 ft 467 kts 190°
2026-05-04 20:42 42.00591 -4.11192 39020 ft 467 kts 189°
2026-05-04 20:43 41.94101 -4.11935 39010 ft 468 kts 189°
2026-05-04 20:43 41.87611 -4.12644 39008 ft 468 kts 189°
2026-05-04 20:44 41.81134 -4.13371 39012 ft 467 kts 189°
2026-05-04 20:44 41.74653 -4.14107 39008 ft 467 kts 189°
2026-05-04 20:45 41.71397 -4.14479 38477 ft 474 kts 189°
2026-05-04 20:45 41.68102 -4.14855 37855 ft 473 kts 189°
2026-05-04 20:45 41.64835 -4.15222 37363 ft 467 kts 189°
2026-05-04 20:45 41.61616 -4.15584 36865 ft 462 kts 190°
2026-05-04 20:46 41.58399 -4.15946 36391 ft 457 kts 190°
2026-05-04 20:46 41.55227 -4.16306 35928 ft 452 kts 191°
2026-05-04 20:46 41.52157 -4.16653 35464 ft 448 kts 191°
2026-05-04 20:46 41.49027 -4.17006 34979 ft 444 kts 191°
2026-05-04 20:47 41.45959 -4.17350 34492 ft 441 kts 191°
2026-05-04 20:47 41.42907 -4.17693 34000 ft 438 kts 192°
2026-05-04 20:47 41.39885 -4.18034 33427 ft 435 kts 192°
2026-05-04 20:47 41.36919 -4.18367 32901 ft 431 kts 192°
2026-05-04 20:48 41.33911 -4.18706 32405 ft 427 kts 192°
2026-05-04 20:48 41.30960 -4.19037 31914 ft 422 kts 192°
2026-05-04 20:48 41.28047 -4.19363 31427 ft 419 kts 192°
2026-05-04 20:48 41.25156 -4.19676 30947 ft 415 kts 191°
2026-05-04 20:49 41.22277 -4.19886 30477 ft 413 kts 190°
2026-05-04 20:49 41.19415 -4.20039 29979 ft 410 kts 190°
2026-05-04 20:49 41.16569 -4.20181 29400 ft 407 kts 190°
2026-05-04 20:49 41.13749 -4.20329 28867 ft 403 kts 190°
2026-05-04 20:50 41.10962 -4.20485 28351 ft 399 kts 190°
2026-05-04 20:50 41.08195 -4.20647 27839 ft 395 kts 190°
2026-05-04 20:50 41.05463 -4.20812 27326 ft 392 kts 190°
2026-05-04 20:50 41.02752 -4.20978 26827 ft 389 kts 190°
2026-05-04 20:51 41.00052 -4.21143 26331 ft 387 kts 189°
2026-05-04 20:51 40.97368 -4.21308 25835 ft 385 kts 189°
2026-05-04 20:51 40.94702 -4.21469 25340 ft 382 kts 189°
2026-05-04 20:51 40.92047 -4.21630 24871 ft 380 kts 189°
2026-05-04 20:52 40.89411 -4.21790 24392 ft 379 kts 189°
2026-05-04 20:52 40.86787 -4.21950 23919 ft 378 kts 189°
2026-05-04 20:52 40.84160 -4.22108 23418 ft 377 kts 189°
2026-05-04 20:52 40.81541 -4.22266 22867 ft 375 kts 188°
2026-05-04 20:53 40.78910 -4.22424 22365 ft 373 kts 188°
2026-05-04 20:53 40.76358 -4.22577 21909 ft 371 kts 188°
2026-05-04 20:53 40.73777 -4.22732 21414 ft 370 kts 188°
2026-05-04 20:53 40.71208 -4.22886 20957 ft 368 kts 188°
2026-05-04 20:54 40.68654 -4.23039 20481 ft 366 kts 188°
2026-05-04 20:54 40.66119 -4.23193 20023 ft 364 kts 188°
2026-05-04 20:54 40.63594 -4.23344 19574 ft 363 kts 188°
2026-05-04 20:54 40.61070 -4.23496 19109 ft 363 kts 187°
2026-05-04 20:55 40.59371 -4.23598 18801 ft 363 kts 187°
2026-05-04 20:55 40.56847 -4.23750 18347 ft 363 kts 187°
2026-05-04 20:55 40.54323 -4.23900 17814 ft 363 kts 187°
2026-05-04 20:55 40.51837 -4.23743 17294 ft 358 kts 172°
2026-05-04 20:56 40.49528 -4.22541 16905 ft 352 kts 159°
2026-05-04 20:56 40.47295 -4.21244 16439 ft 350 kts 163°
2026-05-04 20:56 40.45030 -4.20102 16008 ft 350 kts 164°
2026-05-04 20:56 40.42711 -4.18955 15568 ft 351 kts 164°
2026-05-04 20:57 40.40451 -4.17815 15139 ft 352 kts 163°
2026-05-04 20:57 40.38144 -4.16638 14689 ft 353 kts 163°
2026-05-04 20:57 40.35936 -4.15365 14226 ft 348 kts 153°
2026-05-04 20:57 40.34162 -4.13143 13875 ft 355 kts 128°
2026-05-04 20:58 40.33122 -4.10266 13578 ft 350 kts 111°
2026-05-04 20:58 40.32398 -4.07225 13265 ft 343 kts 111°
2026-05-04 20:58 40.31677 -4.04272 12971 ft 337 kts 111°
2026-05-04 20:58 40.30960 -4.01383 12697 ft 332 kts 111°
2026-05-04 20:59 40.30249 -3.98522 12434 ft 329 kts 111°
2026-05-04 20:59 40.29539 -3.95678 12168 ft 327 kts 111°
2026-05-04 20:59 40.28833 -3.92861 11903 ft 324 kts 111°
2026-05-04 20:59 40.28128 -3.90058 11642 ft 322 kts 111°
2026-05-04 21:00 40.27429 -3.87287 11389 ft 321 kts 110°
2026-05-04 21:00 40.26729 -3.84515 11123 ft 319 kts 110°
2026-05-04 21:00 40.26038 -3.81760 10859 ft 318 kts 110°
2026-05-04 21:00 40.25347 -3.79027 10602 ft 316 kts 110°
2026-05-04 21:01 40.24657 -3.76312 10369 ft 311 kts 110°
2026-05-04 21:01 40.23979 -3.73644 10093 ft 307 kts 110°
2026-05-04 21:01 40.23313 -3.71010 9851 ft 301 kts 110°
2026-05-04 21:01 40.22654 -3.68434 9574 ft 297 kts 110°
2026-05-04 21:02 40.22004 -3.65882 9296 ft 293 kts 109°
2026-05-04 21:02 40.21367 -3.63380 9060 ft 289 kts 110°
2026-05-04 21:02 40.20749 -3.60965 8801 ft 285 kts 109°
2026-05-04 21:02 40.20124 -3.58518 8576 ft 282 kts 109°
2026-05-04 21:03 40.19508 -3.56096 8352 ft 280 kts 110°
2026-05-04 21:03 40.18878 -3.53683 8122 ft 279 kts 111°
2026-05-04 21:03 40.18251 -3.51301 7870 ft 279 kts 110°
2026-05-04 21:03 40.17641 -3.48897 7651 ft 274 kts 105°
2026-05-04 21:04 40.17576 -3.46472 7396 ft 268 kts 74°
2026-05-04 21:04 40.18442 -3.44353 7248 ft 266 kts 49°
2026-05-04 21:04 40.19769 -3.42688 7030 ft 264 kts 38°
2026-05-04 21:04 40.21165 -3.41144 6773 ft 258 kts 34°
2026-05-04 21:05 40.22670 -3.39936 6655 ft 250 kts 26°
2026-05-04 21:05 40.24195 -3.38872 6405 ft 246 kts 25°
2026-05-04 21:05 40.25740 -3.38145 6152 ft 230 kts
2026-05-04 21:05 40.27281 -3.38076 5985 ft 217 kts 359°
2026-05-04 21:06 40.28783 -3.37970 5810 ft 215 kts
2026-05-04 21:06 40.30269 -3.37851 5607 ft 213 kts 360°
2026-05-04 21:06 40.31663 -3.38122 5412 ft 195 kts 332°
2026-05-04 21:06 40.32751 -3.39070 5324 ft 181 kts 324°
2026-05-04 21:07 40.33835 -3.39915 5154 ft 181 kts 326°
2026-05-04 21:07 40.34864 -3.40902 5039 ft 180 kts 320°
2026-05-04 21:07 40.35842 -3.41918 4805 ft 181 kts 321°
2026-05-04 21:07 40.36833 -3.42906 4558 ft 174 kts 321°
2026-05-04 21:08 40.37760 -3.43864 4281 ft 163 kts 322°
2026-05-04 21:08 40.38663 -3.44774 4084 ft 163 kts 320°
2026-05-04 21:08 40.39506 -3.45645 3886 ft 148 kts 321°
2026-05-04 21:08 40.40256 -3.46425 3721 ft 132 kts 317°
2026-05-04 21:09 40.40988 -3.47191 3518 ft 135 kts 322°
2026-05-04 21:09 40.41721 -3.47907 3345 ft 131 kts 322°
2026-05-04 21:09 40.42442 -3.48634 3158 ft 133 kts 322°
2026-05-04 21:09 40.43181 -3.49377 2974 ft 135 kts 322°
2026-05-04 21:10 40.43915 -3.50119 2779 ft 132 kts 322°
2026-05-04 21:10 40.44645 -3.50865 2603 ft 133 kts 322°
2026-05-04 21:10 40.45386 -3.51621 2432 ft 137 kts 322°
2026-05-04 21:10 40.46132 -3.52375 2244 ft 134 kts 322°
2026-05-04 21:11 40.46878 -3.53133 2077 ft 135 kts 322°
2026-05-04 21:11 40.47622 -3.53890 1926 ft 133 kts 322°
2026-05-04 21:11 40.48246 -3.54518 1938 ft 91 kts 322°
2026-05-04 21:11 40.48602 -3.54874 1949 ft 36 kts 323°
2026-05-04 21:12 40.48746 -3.55070 1954 ft 30 kts 301°
2026-05-04 21:12 40.48835 -3.55322 1956 ft 30 kts 292°
2026-05-04 21:12 40.48959 -3.55533 1958 ft 30 kts 327°
2026-05-04 21:12 40.49130 -3.55690 1962 ft 30 kts 323°
2026-05-04 21:13 40.49283 -3.55855 1965 ft 19 kts 321°
2026-05-04 21:13 40.49303 -3.56012 1963 ft 19 kts 258°
2026-05-04 21:13 40.49300 -3.56169 1964 ft 9 kts 263°
2026-05-04 21:13 40.49262 -3.56234 1965 ft 10 kts 205°
2026-05-04 21:14 40.49186 -3.56243 1966 ft 13 kts 176°
2026-05-04 21:14 40.49096 -3.56243 1966 ft 13 kts 181°
2026-05-04 21:14 40.49006 -3.56244 1966 ft 13 kts 178°
2026-05-04 21:14 40.48916 -3.56241 1966 ft 13 kts 181°
2026-05-04 21:15 40.48856 -3.56310 1968 ft 13 kts 266°
2026-05-04 21:15 40.48864 -3.56428 1971 ft 13 kts 268°
2026-05-04 21:15 40.48883 -3.56537 1976 ft 13 kts 320°
2026-05-04 21:15 40.48971 -3.56540 1977 ft 13 kts
2026-05-04 21:16 40.49061 -3.56542 1974 ft 13 kts 359°
2026-05-04 21:16 40.49151 -3.56543 1975 ft 13 kts 359°
2026-05-04 21:16 40.49213 -3.56560 1980 ft 8 kts 310°
2026-05-04 21:16 40.49216 -3.56627 1977 ft 4 kts 269°
2026-05-04 21:17 40.49217 -3.56650 1975 ft 0 kts 271°